TimeMST,TemperatureF,Dew PointF,Humidity,Sea Level PressureIn,VisibilityMPH,Wind Direction,Wind SpeedMPH,Gust SpeedMPH,PrecipitationIn,Events,Conditions,WindDirDegrees,DateUTC
12:01 AM,26.6,23.0,86,29.64,2.0,North,4.6,-,0.00,Snow,Light Snow,10,2012-11-10 07:01:00
12:05 AM,26.6,23.0,86,29.64,3.0,North,3.5,-,0.00,Snow,Light Snow,360,2012-11-10 07:05:00
12:41 AM,26.6,21.2,80,29.64,2.0,North,5.8,-,0.01,Snow,Light Snow,360,2012-11-10 07:41:00
12:55 AM,26.1,21.9,84,29.68,1.0,North,3.5,-,0.01,Snow,Light Snow,350,2012-11-10 07:55:00
1:09 AM,26.6,21.2,80,29.64,0.8,Calm,Calm,-,0.01,Snow,Light Snow,0,2012-11-10 08:09:00
1:19 AM,26.6,21.2,80,29.64,1.0,West,3.5,-,0.02,Snow,Light Snow,280,2012-11-10 08:19:00
1:29 AM,24.8,21.2,86,29.64,1.5,WNW,4.6,-,0.02,Snow,Light Snow,300,2012-11-10 08:29:00
1:43 AM,26.6,21.2,80,29.64,2.0,Calm,Calm,-,0.03,Snow,Light Snow,0,2012-11-10 08:43:00
1:52 AM,24.8,21.2,86,29.64,3.0,North,3.5,-,0.03,Snow,Light Snow,350,2012-11-10 08:52:00
1:53 AM,26.1,21.9,84,29.69,3.0,Calm,Calm,-,0.03,Snow,Light Snow,0,2012-11-10 08:53:00
2:55 AM,21.9,19.0,89,29.72,10.0,West,3.5,-,0.00,,Overcast,280,2012-11-10 09:55:00
3:55 AM,19.0,15.1,85,29.73,10.0,NW,3.5,-,N/A,,Overcast,320,2012-11-10 10:55:00
4:55 AM,19.0,15.1,85,29.74,10.0,SSE,3.5,-,N/A,,Overcast,150,2012-11-10 11:55:00
5:55 AM,21.9,16.0,78,29.77,10.0,NW,3.5,-,N/A,,Overcast,310,2012-11-10 12:55:00
6:55 AM,18.0,14.0,84,29.80,10.0,Calm,Calm,-,N/A,,Overcast,0,2012-11-10 13:55:00
7:55 AM,17.1,14.0,88,29.83,10.0,Calm,Calm,-,N/A,,Overcast,0,2012-11-10 14:55:00
8:53 AM,15.8,14.0,93,29.74,3.0,South,3.5,-,N/A,,Scattered Clouds,190,2012-11-10 15:53:00
8:55 AM,17.1,15.1,92,29.85,2.5,SSW,3.5,-,N/A,,Scattered Clouds,200,2012-11-10 15:55:00
9:03 AM,17.6,15.8,93,29.75,8.0,Calm,Calm,-,N/A,,Scattered Clouds,0,2012-11-10 16:03:00
9:55 AM,19.9,17.1,89,29.86,10.0,Calm,Calm,-,N/A,,Mostly Cloudy,0,2012-11-10 16:55:00
10:55 AM,23.0,18.0,81,29.87,10.0,Calm,Calm,-,N/A,,Mostly Cloudy,0,2012-11-10 17:55:00
11:55 AM,24.1,18.0,77,29.87,10.0,Calm,Calm,-,N/A,,Overcast,0,2012-11-10 18:55:00
12:55 PM,28.0,17.1,63,29.86,10.0,Calm,Calm,-,N/A,,Overcast,0,2012-11-10 19:55:00
1:12 PM,28.4,15.8,59,29.78,8.0,Calm,Calm,-,0.00,Snow,Light Snow,0,2012-11-10 20:12:00
1:21 PM,28.4,15.8,59,29.78,10.0,Calm,Calm,-,0.00,,Scattered Clouds,0,2012-11-10 20:21:00
1:55 PM,26.1,17.1,69,29.88,10.0,Calm,Calm,-,0.00,,Partly Cloudy,0,2012-11-10 20:55:00
2:55 PM,26.1,17.1,69,29.91,10.0,Calm,Calm,-,N/A,,Mostly Cloudy,0,2012-11-10 21:55:00
3:55 PM,27.0,16.0,63,29.93,10.0,Calm,Calm,-,N/A,,Mostly Cloudy,0,2012-11-10 22:55:00
4:55 PM,24.1,15.1,69,29.96,10.0,SSE,4.6,-,N/A,,Clear,150,2012-11-10 23:55:00
5:55 PM,19.0,12.0,74,29.98,10.0,SSE,5.8,-,N/A,,Clear,150,2012-11-11 00:55:00
6:55 PM,19.9,12.9,74,30.03,10.0,Calm,Calm,-,N/A,,Clear,0,2012-11-11 01:55:00
7:55 PM,19.0,12.0,74,30.06,10.0,Calm,Calm,-,N/A,,Overcast,0,2012-11-11 02:55:00
9:55 PM,19.0,12.0,74,30.08,10.0,Calm,Calm,-,0.00,,Overcast,0,2012-11-11 04:55:00
10:55 PM,17.1,10.9,77,30.09,10.0,Calm,Calm,-,N/A,,Clear,0,2012-11-11 05:55:00
11:55 PM,15.1,10.0,80,30.12,10.0,Calm,Calm,-,N/A,,Clear,0,2012-11-11 06:55:00